Spokane Felts, WA
on Tuesday, January 1, 2013

Tuesday
Previous Day Next Day
Daily Summary
 ActualAverageRecord
Temperature
Mean Temperature °F 29°F  
Max Temperature 26°F 35°F 55°F (1997)
Min Temperature 17°F 24°F -1°F (2011)
Degree Days
Heating Degree Days 43 36  
Month to date heating degree days 43 36  
Since 1 July heating degree days 2211 2705  
Cooling Degree Days 0 0  
Month to date cooling degree days 0 0  
Year to date cooling degree days 0 0  
Moisture
Dew Point 18°F   
Average Humidity 76    
Maximum Humidity 84    
Minimum Humidity 68    
Precipitation
Precipitation 0.00 in 0.07 in 0.22 in (2003)
Month to date precipitation 0.00 0.07  
Year to date precipitation 0.00 0.07  
Wind
Wind Speed 2 mph   
Max Wind Speed 10 mph   
Max Gust Speed 12 mph   
Visibility 8 miles   
Events     

Key: T is trace of precipitation, MM is missing value
Source: NWS Daily Summary
Time(PST)TemperatureDew PointHumidity Pressure Visibility Wind DirectionWind SpeedGust SpeedPrecipitationEvents Conditions
12:31 AM 17.6°F 14.0°F 86% 30.44 in 4.0 miles SW 3.5 mph - N/A   Mostly Cloudy
12:46 AM 17.6°F 15.8°F 93% 30.43 in 4.0 miles WSW 3.5 mph - N/A   Overcast
12:53 AM 19.9°F 16.0°F 85% 30.51 in 3.0 miles Calm Calm - N/A   Overcast
1:02 AM 21.2°F 17.6°F 86% 30.43 in 2.5 miles Calm Calm - N/A   Overcast
1:12 AM 19.4°F 17.6°F 93% 30.42 in 4.0 miles Calm Calm - N/A   Overcast
1:53 AM 21.0°F 18.0°F 88% 30.51 in 3.0 miles Calm Calm - N/A   Overcast
2:31 AM 21.2°F 17.6°F 86% 30.46 in 4.0 miles Variable 3.5 mph - N/A   Overcast
2:53 AM 21.0°F 17.1°F 85% 30.55 in 5.0 miles West 3.5 mph - N/A   Overcast
3:24 AM 21.2°F 15.8°F 80% 30.47 in 6.0 miles Variable 4.6 mph - N/A   Haze
3:53 AM 21.0°F 17.1°F 85% 30.56 in 7.0 miles NNW 4.6 mph - N/A   Overcast
4:12 AM 19.4°F 17.6°F 93% 30.49 in 9.0 miles Calm Calm - N/A   Overcast
4:53 AM 21.0°F 17.1°F 85% 30.57 in 9.0 miles Calm Calm - N/A   Overcast
5:25 AM 21.2°F 15.8°F 80% 30.49 in 10.0 miles Calm Calm - N/A   Overcast
5:53 AM 21.9°F 17.1°F 82% 30.58 in 10.0 miles Calm Calm - N/A   Overcast
6:53 AM 21.9°F 17.1°F 82% 30.58 in 9.0 miles Calm Calm - N/A   Overcast
7:53 AM 21.9°F 17.1°F 82% 30.59 in 9.0 miles WSW 4.6 mph - N/A   Overcast
8:53 AM 23.0°F 18.0°F 81% 30.61 in 9.0 miles Calm Calm - N/A   Overcast
9:53 AM 24.1°F 18.0°F 77% 30.64 in 9.0 miles West 3.5 mph - N/A   Overcast
10:53 AM 25.0°F 19.0°F 78% 30.64 in 10.0 miles Variable 3.5 mph - N/A   Overcast
11:53 AM 26.1°F 18.0°F 71% 30.63 in 10.0 miles SW 8.1 mph - N/A   Overcast
12:53 PM 26.1°F 18.0°F 71% 30.63 in 10.0 miles SW 3.5 mph - N/A   Overcast
1:53 PM 26.1°F 18.0°F 71% 30.63 in 10.0 miles Calm Calm - N/A   Overcast
2:53 PM 26.1°F 18.0°F 71% 30.63 in 10.0 miles Calm Calm - N/A   Overcast
3:53 PM 26.1°F 18.0°F 71% 30.64 in 10.0 miles Calm Calm - N/A   Overcast
4:53 PM 26.1°F 18.0°F 71% 30.64 in 10.0 miles Calm Calm - N/A   Overcast
5:53 PM 26.1°F 19.0°F 75% 30.64 in 10.0 miles SW 3.5 mph - N/A   Overcast
6:53 PM 26.1°F 19.0°F 75% 30.65 in 10.0 miles Calm Calm - N/A   Overcast
7:53 PM 26.1°F 19.0°F 75% 30.65 in 10.0 miles Calm Calm - N/A   Overcast
8:53 PM 26.1°F 19.0°F 75% 30.65 in 10.0 miles ENE 3.5 mph - N/A   Overcast
9:53 PM 26.1°F 19.0°F 75% 30.64 in 10.0 miles Calm Calm - N/A   Overcast
10:53 PM 26.1°F 19.0°F 75% 30.64 in 10.0 miles Calm Calm - N/A   Overcast
11:53 PM 26.1°F 18.0°F 71% 30.65 in 10.0 miles Calm Calm - N/A   Overcast
Moon Phase
Jan. 01 Jan. 04 Jan. 11 Jan. 18 Jan. 26
Sunrise:07:37 AM (PST) Moon Rise:09:05 PM (PST)1/1
Sunset:04:08 PM (PST) Moon Set:09:32 AM (PST)1/1

Copyright © 2014 The Weather Underground, Inc.